User: anonymous
Location: Mt. Cuba Astronomical Observatory
(39.8100°N, 75.6300°W)
Time: 11:55:38
(UTC-04:00)
Language:

Cosmos 2058 - Orbit

View from above orbital plane
View from above orbital plane
View from above satellite
View from above satellite

Ground track
Ground track

The orbit data is extracted from the following two-line orbital elements,

1 20465U 90010A   14213.04750112  .00001305  00000-0  11699-3 0  1808
2 20465 082.4927 177.1152 0015489 225.5382 134.4573 14.94927690328112
Epoch (UTC): 01 August 2014 01:08:24
Eccentricity: 0.0015489
inclination: 82.4927°
perigee height: 572 km
apogee height: 593 km
right ascension of ascending node: 177.1152°
argument of perigee: 225.5382°
revolutions per day: 14.94927690
mean anomaly at epoch: 134.4573°
orbit number at epoch: 32811

The dashed part of the orbit path shows where the satellite is in the earth's shadow,  

DLR